P/2019 U1 ( Gibbs )

Japanese version
Home page
Updated on October 31, 2019

---------------------------------------------------------------------

* Profile

Recovery Date October 21, 2019
Magnitude 18.4 mag
Recoverer A. Fitzsimmons (Asteroid Terrestrial-Impact Last Alert System (ATLAS) search program)

* Orbital Elements

Epoch 2020 Mar. 12.0 TT = JDT 2458920.5                                         
T 2020 Mar. 22.23904 TT                                 Bell                    
q   1.6998127            (2000.0)            P               Q                  
n   0.07060993     Peri.  232.33946     +0.88994592     -0.43136446             
a   5.7972965      Node   152.27962     +0.44899927     +0.88562939             
e   0.7067922      Incl.   18.55987     -0.07997450     +0.17200376             
P  14.0                                                                         
From 170 observations 2006 Nov. 16-2019 Oct. 25, mean residual 0".7.            

* Finding Charts

* Magnitudes Graph

        m1 = 12.0 + 5 log d + 10.0 log r

---------------------------------------------------------------------

The orbital elements are published on M.P.E.C. 2019-U163.
The charts are made with StellaNavigator Ver.10 (AstroArts).
The magnitudes graphs are made with Comet for Windows.

---------------------------------------------------------------------

Copyright(C) Seiichi Yoshida (comet@aerith.net). All rights reserved.